Showing default

COSMOS 1692, 16140

Orbit data source: Space-Track

COSMOS 1692, 16140 is a payload satellite owned by GUKOS (CIS) in LEO that was launched on Wed, 09 Oct 1985 UTC via a TSIKLON-3 launch vehicle from the Plesetsk Missile And Space Complex (PKMTR). Payload-class satellites include a variety of spacecraft equipped with specific instruments for various scientific and technological missions. These include communications satellites like Starlink; space stations such as the ISS; scientific satellites like the Hubble; Earth observation satellites from companies like Planet Labs, Umbra, and HawkEye 360; GPS; miniature CubeSats for education and research; and military/defense satellites.

Loading next visibility...
Identifier
16140, 1985-094C
Orbit
LEO
Country
Flag of CISCIS
Related business
Manufacturer
NPO PM
Mission
Spacecraft
Bus & Motor
STRELA-3, Unknown motor
Mass
225 kg wet, 225 kg dry
Launch date (UTC)
1985-10-09 (40 years ago)
Launch vehicle
TSIKLON-3
Launch site
Plesetsk Missile And Space Complex (PKMTR)
Object type
Payload
Rocket body
Debris
Shape & HBR
Unknown
Radar Cross Section
Medium (>0.1 m² and <1 m²)

Expand to show TLE details & history
Last TLE update: 7 hours ago

TLE from 7 hours ago
0 COSMOS 1692
1 16140U 85094C   26037.25586383  .00000012  00000-0  79598-5 0  9992
2 16140  82.6039 314.1670 0016783 307.1546 208.7925 12.64914220861824
Epoch: 2026-02-06T06:08Z
TLE epoch observation values (Epoch: 2026-02-06T06:08:26.634Z)
Latitude
23.95331°
Longitude
-97.62994°
Altitude
1,416.931 km
Speed
7.149 km/s
True Right ascension
08h 43m 30s
True Declination
23° 50' 12"
Sunlit
Object was in full shadow at epoch
Visualization orbit readout
Latitude
Unknown
Longitude
Unknown
Altitude
Unknown
Speed
Unknown
Apparent Right ascension
Unknown
Apparent Declination
Unknown
Sunlit
N/A
Visualization observer readout
Local Sidereal Time
15:29:23
Azimuth
Unknown
Elevation
Unknown
Doppler factor
Unknown
Orbital elements
Apogee altitude
1,413.097 km
Perigee altitude
1,386.988 km
Semi-major axis
7,778.179 km
Eccentricity
0.00168
Inclination
82.6039°
RAAN
314.167°
Arg. of periapsis
307.1546°
True anomaly
208.70004°
Mean anomaly
208.7925°
Eccentric anomaly
208.74625°
Mean motion
3.16393 °/min
Orbital period
113.78 mins
BSTAR
0.0000079598
Loading maneuver chart data...
Computing Atmospheric mass density...
Loading historical data...
Loading historical data...
Loading historical data...
Loading historical data...
Loading historical data...
Loading historical data...
Loading historical data...

Documentation

Showing up to 5 results
|